KG9NS Weather Reports


time (UTC)temp
C
wind
direction
speed
KPH
gust
KPH
rain 1hr
cm
rain 24hr
cm
rain mn
cm
humidity
%
barometer
mb
20260902231733 32 229 4.8 6.4 0.00 0.00 0.00 55 1016.3
20260902231231 32 233 6.4 9.7 0.00 0.00 0.00 55 1016.2
20260902230734 32 237 4.8 8.0 0.00 0.00 0.00 55 1016.3
20260902230231 33 230 4.8 6.4 0.00 0.00 0.00 54 1016.3
20260902225731 33 243 6.4 16.1 0.00 0.00 0.00 54 1016.3
20260902225233 33 238 8.0 27.4 0.00 0.00 0.00 54 1016.4
20260902224731 33 233 4.8 9.7 0.00 0.00 0.00 53 1016.4
20260902224231 33 236 6.4 8.0 0.00 0.00 0.00 53 1016.4
20260902223731 33 232 6.4 20.9 0.00 0.00 0.00 53 1016.4
20260902223231 33 229 4.8 12.9 0.00 0.00 0.00 54 1016.4
20260902222731 33 235 3.2 6.4 0.00 0.00 0.00 54 1016.4
20260902222231 33 238 8.0 12.9 0.00 0.00 0.00 54 1016.4
20260902221731 33 237 9.7 17.7 0.00 0.00 0.00 53 1016.4
20260902221231 33 232 4.8 9.7 0.00 0.00 0.00 53 1016.5
20260902220732 33 246 6.4 11.3 0.00 0.00 0.00 53 1016.5
20260902220233 33 235 6.4 11.3 0.00 0.00 0.00 53 1016.5
20260902215731 33 239 4.8 11.3 0.00 0.00 0.00 53 1016.5
20260902215231 33 246 6.4 8.0 0.00 0.00 0.00 52 1016.5
20260902214731 33 237 9.7 22.5 0.00 0.00 0.00 53 1016.5
20260902214231 33 235 6.4 8.0 0.00 0.00 0.00 52 1016.6
20260902213731 33 235 8.0 11.3 0.00 0.00 0.00 52 1016.5
20260902213231 33 236 8.0 9.7 0.00 0.00 0.00 53 1016.5
20260902212731 33 231 4.8 9.7 0.00 0.00 0.00 54 1016.5
20260902212231 33 242 6.4 9.7 0.00 0.00 0.00 54 1016.6
20260902211730 33 232 6.4 16.1 0.00 0.00 0.00 54 1016.6
20260902211232 33 252 8.0 14.5 0.00 0.00 0.00 52 1016.6
20260902210731 33 235 4.8 8.0 0.00 0.00 0.00 54 1016.6
20260902210231 33 228 6.4 14.5 0.00 0.00 0.00 53 1016.7
20260902205731 33 231 4.8 17.7 0.00 0.00 0.00 52 1016.7
20260902205231 33 228 1.6 6.4 0.00 0.00 0.00 52 1016.8
20260902204731 33 235 4.8 14.5 0.00 0.00 0.00 52 1016.8
20260902204231 33 232 4.8 9.7 0.00 0.00 0.00 51 1016.8
20260902203731 33 244 3.2 6.4 0.00 0.00 0.00 53 1016.8
20260902203231 33 234 8.0 11.3 0.00 0.00 0.00 52 1016.8
20260902202731 33 231 8.0 16.1 0.00 0.00 0.00 52 1016.8
20260902202231 33 237 3.2 4.8 0.00 0.00 0.00 53 1016.8
20260902201731 33 228 4.8 16.1 0.00 0.00 0.00 54 1016.9
20260902201233 33 229 4.8 6.4 0.00 0.00 0.00 53 1016.9
20260902200732 33 227 9.7 22.5 0.00 0.00 0.00 52 1016.9
20260902200232 33 238 6.4 8.0 0.00 0.00 0.00 52 1016.9
20260902195731 33 231 3.2 19.3 0.00 0.00 0.00 52 1016.9
20260902195231 33 234 4.8 6.4 0.00 0.00 0.00 51 1017.0
20260902194732 33 237 4.8 11.3 0.00 0.00 0.00 52 1017.1
20260902194231 33 240 8.0 9.7 0.00 0.00 0.00 52 1017.1
20260902193732 33 234 6.4 8.0 0.00 0.00 0.00 52 1017.2
20260902193231 33 229 4.8 14.5 0.00 0.00 0.00 50 1017.2
20260902192731 33 229 9.7 30.6 0.00 0.00 0.00 50 1017.3
20260902192231 33 238 4.8 8.0 0.00 0.00 0.00 51 1017.5
20260902191731 33 243 6.4 9.7 0.00 0.00 0.00 52 1017.5
20260902191232 33 235 9.7 22.5 0.00 0.00 0.00 50 1017.6
20260902190732 33 237 6.4 12.9 0.00 0.00 0.00 51 1017.6
20260902190231 33 238 6.4 9.7 0.00 0.00 0.00 51 1017.7
20260902185732 33 245 3.2 6.4 0.00 0.00 0.00 52 1017.7
20260902185231 34 242 8.0 12.9 0.00 0.00 0.00 51 1017.7
20260902184730 33 242 3.2 6.4 0.00 0.00 0.00 52 1017.7
20260902184231 33 233 3.2 6.4 0.00 0.00 0.00 52 1017.8
20260902183733 33 240 6.4 9.7 0.00 0.00 0.00 53 1017.8
20260902183231 33 232 8.0 12.9 0.00 0.00 0.00 52 1017.9
20260902182231 33 232 6.4 9.7 0.00 0.00 0.00 52 1017.9
20260902181731 33 243 8.0 12.9 0.00 0.00 0.00 53 1018.0
20260902181231 33 231 6.4 8.0 0.00 0.00 0.00 54 1018.0
20260902180732 33 238 6.4 9.7 0.00 0.00 0.00 53 1017.9
20260902180233 33 235 6.4 11.3 0.00 0.00 0.00 54 1018.0
20260902175731 33 232 4.8 11.3 0.00 0.00 0.00 55 1018.0
20260902175231 33 244 8.0 14.5 0.00 0.00 0.00 54 1018.1
20260902174731 33 234 6.4 8.0 0.00 0.00 0.00 55 1018.2
20260902174232 32 237 8.0 16.1 0.00 0.00 0.00 56 1018.3
20260902173731 32 251 4.8 6.4 0.00 0.00 0.00 56 1018.4
20260902173231 32 232 6.4 17.7 0.00 0.00 0.00 56 1018.4
20260902172732 32 237 6.4 14.5 0.00 0.00 0.00 56 1018.5
20260902172232 32 229 8.0 12.9 0.00 0.00 0.00 59 1018.5
20260902171732 32 234 8.0 24.1 0.00 0.00 0.00 58 1018.5
20260902171231 32 231 6.4 9.7 0.00 0.00 0.00 59 1018.6
20260902170731 32 237 6.4 12.9 0.00 0.00 0.00 59 1018.6
20260902170231 32 232 6.4 8.0 0.00 0.00 0.00 59 1018.6
20260902165231 32 228 9.7 12.9 0.00 0.00 0.00 59 1018.6
20260902164732 32 232 3.2 6.4 0.00 0.00 0.00 60 1018.7
20260902164232 32 230 6.4 8.0 0.00 0.00 0.00 60 1018.7
20260902163731 32 229 6.4 9.7 0.00 0.00 0.00 59 1018.7
20260902163232 32 232 6.4 9.7 0.00 0.00 0.00 60 1018.8
20260902162732 31 232 6.4 8.0 0.00 0.00 0.00 61 1018.7
20260902162231 31 230 3.2 6.4 0.00 0.00 0.00 62 1018.7
20260902161731 31 228 6.4 9.7 0.00 0.00 0.00 61 1018.6
20260902161233 31 228 4.8 6.4 0.00 0.00 0.00 62 1018.7
20260902160732 31 231 6.4 8.0 0.00 0.00 0.00 63 1018.8
20260902160232 31 228 6.4 8.0 0.00 0.00 0.00 62 1018.8
20260902155731 31 227 4.8 6.4 0.00 0.00 0.00 63 1018.8
20260902155232 31 231 6.4 8.0 0.00 0.00 0.00 63 1018.8
20260902154732 31 227 3.2 6.4 0.00 0.00 0.00 63 1018.8
20260902154231 30 231 6.4 11.3 0.00 0.00 0.00 64 1018.9
20260902153731 31 227 4.8 8.0 0.00 0.00 0.00 64 1018.9
20260902153231 31 227 3.2 6.4 0.00 0.00 0.00 65 1019.0
20260902152731 31 229 4.8 6.4 0.00 0.00 0.00 64 1019.0
20260902152233 30 228 4.8 8.0 0.00 0.00 0.00 65 1019.0
20260902151731 30 228 4.8 6.4 0.00 0.00 0.00 66 1019.0
20260902151231 30 228 4.8 6.4 0.00 0.00 0.00 65 1019.0
20260902150731 30 229 6.4 9.7 0.00 0.00 0.00 66 1019.0
20260902150231 30 227 4.8 6.4 0.00 0.00 0.00 66 1019.1
20260902145731 30 223 6.4 9.7 0.00 0.00 0.00 66 1019.0
20260902145232 30 227 4.8 6.4 0.00 0.00 0.00 67 1019.1
20260902144731 30 228 4.8 6.4 0.00 0.00 0.00 68 1019.1
20260902144231 29 230 6.4 8.0 0.00 0.00 0.00 68 1019.0
20260902143731 29 227 4.8 6.4 0.00 0.00 0.00 69 1019.1
20260902143231 29 225 3.2 4.8 0.00 0.00 0.00 70 1019.0
20260902142731 28 227 4.8 9.7 0.00 0.00 0.00 70 1019.1
20260902142233 28 226 6.4 17.7 0.00 0.00 0.00 70 1019.0
20260902141732 28 228 3.2 3.2 0.00 0.00 0.00 71 1019.1
20260902141232 28 228 3.2 4.8 0.00 0.00 0.00 71 1019.1
20260902140732 28 239 4.8 6.4 0.00 0.00 0.00 71 1019.0
20260902140231 28 234 4.8 9.7 0.00 0.00 0.00 71 1019.0
20260902135731 28 227 4.8 9.7 0.00 0.00 0.00 71 1019.0
20260902135231 28 226 3.2 4.8 0.00 0.00 0.00 72 1019.0
20260902134733 27 230 3.2 6.4 0.00 0.00 0.00 73 1019.1
20260902134231 27 238 4.8 6.4 0.00 0.00 0.00 72 1019.0
20260902133731 27 229 6.4 8.0 0.00 0.00 0.00 72 1019.0
20260902133231 27 230 4.8 6.4 0.00 0.00 0.00 73 1019.0
20260902132731 27 231 4.8 6.4 0.00 0.00 0.00 73 1018.9
20260902132233 27 231 4.8 6.4 0.00 0.00 0.00 74 1018.9
20260902131731 27 240 6.4 9.7 0.00 0.00 0.00 74 1018.9
20260902131231 27 231 3.2 6.4 0.00 0.00 0.00 75 1018.9
20260902130731 27 225 3.2 4.8 0.00 0.00 0.00 75 1019.0
20260902130231 26 229 4.8 8.0 0.00 0.00 0.00 76 1019.0
20260902125731 26 230 3.2 6.4 0.00 0.00 0.00 76 1019.0
20260902125231 26 233 3.2 6.4 0.00 0.00 0.00 77 1019.0
20260902124731 26 231 3.2 6.4 0.00 0.00 0.00 78 1019.0
20260902124232 26 234 4.8 6.4 0.00 0.00 0.00 79 1018.9
20260902123731 25 228 3.2 11.3 0.00 0.00 0.00 81 1018.9
20260902123232 25 227 3.2 4.8 0.00 0.00 0.00 82 1018.8
20260902122731 25 227 3.2 4.8 0.00 0.00 0.00 83 1018.8
20260902122231 25 226 3.2 4.8 0.00 0.00 0.00 84 1018.8
20260902121731 25 227 3.2 3.2 0.00 0.00 0.00 84 1018.7
20260902121231 25 227 3.2 3.2 0.00 0.00 0.00 85 1018.7
20260902120732 24 227 3.2 3.2 0.00 0.00 0.00 85 1018.7
20260902120231 24 227 3.2 3.2 0.00 0.00 0.00 86 1018.8
20260902115731 24 227 3.2 3.2 0.00 0.00 0.00 86 1018.7
20260902115231 24 227 3.2 3.2 0.00 0.00 0.00 86 1018.6
20260902114731 23 227 1.6 3.2 0.00 0.00 0.00 86 1018.5
20260902114231 23 226 3.2 3.2 0.00 0.00 0.00 86 1018.5
20260902113731 23 225 3.2 3.2 0.00 0.00 0.00 87 1018.4
20260902113231 23 221 3.2 4.8 0.00 0.00 0.00 87 1018.4
20260902112731 23 221 3.2 4.8 0.00 0.00 0.00 87 1018.3
20260902112231 23 220 3.2 4.8 0.00 0.00 0.00 87 1018.3
20260902111732 23 218 3.2 3.2 0.00 0.00 0.00 87 1018.2
20260902111231 23 218 3.2 4.8 0.00 0.00 0.00 87 1018.2
20260902110731 23 211 6.4 8.0 0.00 0.00 0.00 87 1018.2
20260902110232 23 195 6.4 8.0 0.00 0.00 0.00 87 1018.2
20260902105731 23 191 6.4 9.7 0.00 0.00 0.00 86 1018.2
20260902105231 23 193 6.4 8.0 0.00 0.00 0.00 86 1018.2
20260902104730 23 194 6.4 9.7 0.00 0.00 0.00 86 1018.2
20260902104231 23 192 6.4 11.3 0.00 0.00 0.00 86 1018.3
20260902103731 23 192 6.4 8.0 0.00 0.00 0.00 86 1018.3
20260902103231 23 197 6.4 8.0 0.00 0.00 0.00 86 1018.3
20260902102731 23 186 6.4 8.0 0.00 0.00 0.00 86 1018.3
20260902102231 23 191 6.4 8.0 0.00 0.00 0.00 86 1018.2
20260902101731 23 195 6.4 8.0 0.00 0.00 0.00 86 1018.2
20260902101232 23 191 6.4 6.4 0.00 0.00 0.00 86 1018.2
20260902100731 23 190 6.4 8.0 0.00 0.00 0.00 86 1018.2
20260902100231 23 193 6.4 8.0 0.00 0.00 0.00 87 1018.2
20260902095731 23 182 6.4 8.0 0.00 0.00 0.00 88 1018.1
20260902095233 23 197 6.4 8.0 0.00 0.00 0.00 88 1018.1
20260902094730 23 185 6.4 6.4 0.00 0.00 0.00 89 1018.1
20260902094231 23 190 6.4 6.4 0.00 0.00 0.00 89 1018.0
20260902093731 23 188 4.8 6.4 0.00 0.00 0.00 89 1018.1
20260902093232 23 185 4.8 6.4 0.00 0.00 0.00 88 1018.1
20260902092732 23 192 4.8 6.4 0.00 0.00 0.00 88 1018.1
20260902092231 23 193 4.8 8.0 0.00 0.00 0.00 88 1018.1
20260902091731 23 195 4.8 6.4 0.00 0.00 0.00 88 1018.1
20260902091231 23 194 6.4 6.4 0.00 0.00 0.00 88 1018.1
20260902090731 23 194 4.8 8.0 0.00 0.00 0.00 87 1018.1
20260902090233 23 189 4.8 6.4 0.00 0.00 0.00 87 1018.0
20260902085731 23 176 4.8 8.0 0.00 0.00 0.00 87 1017.9
20260902085231 23 197 6.4 8.0 0.00 0.00 0.00 87 1017.9
20260902084731 23 196 6.4 8.0 0.00 0.00 0.00 87 1017.8
20260902084231 23 192 4.8 6.4 0.00 0.00 0.00 87 1017.7
20260902083731 23 190 4.8 6.4 0.00 0.00 0.00 87 1017.6
20260902083231 23 182 4.8 6.4 0.00 0.00 0.00 87 1017.6
20260902082731 23 170 4.8 6.4 0.00 0.00 0.00 87 1017.6
20260902082231 23 166 4.8 6.4 0.00 0.00 0.00 87 1017.6
20260902081733 23 186 1.6 6.4 0.00 0.00 0.00 87 1017.6
20260902081232 23 162 3.2 4.8 0.00 0.00 0.00 87 1017.6
20260902080731 23 177 3.2 8.0 0.00 0.00 0.00 87 1017.5
20260902080234 23 192 3.2 6.4 0.00 0.00 0.00 87 1017.5
20260902075731 23 150 3.2 6.4 0.00 0.00 0.00 88 1017.5
20260902075231 23 154 3.2 4.8 0.00 0.00 0.00 88 1017.5
20260902074731 23 170 4.8 8.0 0.00 0.00 0.00 88 1017.5
20260902074231 23 132 3.2 4.8 0.00 0.00 0.00 88 1017.3
20260902073733 23 170 3.2 6.4 0.00 0.00 0.00 88 1017.3
20260902073231 23 139 3.2 6.4 0.00 0.00 0.00 87 1017.5
20260902072731 23 179 6.4 8.0 0.00 0.00 0.00 87 1017.5
20260902072232 23 176 6.4 8.0 0.00 0.00 0.00 87 1017.5
20260902071731 23 179 4.8 6.4 0.00 0.00 0.00 86 1017.5
20260902071232 23 174 6.4 8.0 0.00 0.00 0.00 86 1017.5
20260902070731 23 179 4.8 8.0 0.00 0.00 0.00 85 1017.5
20260902070231 23 177 4.8 9.7 0.00 0.00 0.00 85 1017.5
20260902065732 23 178 6.4 8.0 0.00 0.00 0.00 84 1017.5
20260902065232 24 176 6.4 8.0 0.00 0.00 0.00 84 1017.6
20260902064732 24 177 6.4 8.0 0.00 0.00 0.00 83 1017.5
20260902064231 24 179 6.4 8.0 0.00 0.00 0.00 82 1017.5
20260902063731 25 181 6.4 8.0 0.00 0.00 0.00 81 1017.5
20260902063231 25 180 6.4 8.0 0.00 0.00 0.00 81 1017.5
20260902062733 25 177 6.4 8.0 0.00 0.00 0.00 80 1017.5
20260902062231 25 184 6.4 8.0 0.00 0.00 0.00 79 1017.5
20260902061731 25 180 4.8 8.0 0.00 0.00 0.00 79 1017.6
20260902061235 25 178 4.8 6.4 0.00 0.00 0.00 79 1017.5
20260902060731 25 178 4.8 8.0 0.00 0.00 0.00 79 1017.5
20260902060232 25 177 4.8 8.0 0.00 0.00 0.00 79 1017.5
20260902055731 25 178 6.4 8.0 0.00 0.00 0.00 78 1017.5
20260902055231 25 178 6.4 8.0 0.00 0.00 0.00 79 1017.5
20260902054731 25 182 6.4 8.0 0.00 0.00 0.00 79 1017.5
20260902054232 25 179 6.4 8.0 0.00 0.00 0.00 80 1017.5
20260902053731 25 180 6.4 8.0 0.00 0.00 0.00 80 1017.6
20260902053231 25 179 6.4 8.0 0.00 0.00 0.00 80 1017.6
20260902052731 25 181 6.4 8.0 0.00 0.00 0.00 80 1017.6
20260902052231 25 177 6.4 9.7 0.00 0.00 0.00 80 1017.6
20260902051731 25 176 6.4 9.7 0.00 0.00 0.00 80 1017.6
20260902051231 25 175 4.8 8.0 0.00 0.00 0.00 81 1017.6
20260902050731 25 179 4.8 8.0 0.00 0.00 0.00 81 1017.6
20260902050231 25 180 4.8 9.7 0.00 0.00 0.00 82 1017.5
20260902045731 25 182 6.4 9.7 0.00 0.00 0.00 82 1017.5
20260902044755 25 178 6.4 8.0 0.00 0.00 0.00 82 1017.6
20260902044231 25 179 6.4 9.7 0.00 0.00 0.00 82 1017.6
20260902043731 25 183 6.4 8.0 0.00 0.00 0.00 81 1017.6
20260902043232 25 182 4.8 6.4 0.00 0.00 0.00 81 1017.5
20260902042731 25 175 6.4 8.0 0.00 0.00 0.00 81 1017.5
20260902042231 25 177 6.4 8.0 0.00 0.00 0.00 80 1017.6
20260902041731 25 183 6.4 9.7 0.00 0.00 0.00 80 1017.6
20260902041231 25 177 4.8 8.0 0.00 0.00 0.00 79 1017.6
20260902040731 25 178 6.4 9.7 0.00 0.00 0.00 79 1017.6
20260902040231 25 179 6.4 8.0 0.00 0.00 0.00 78 1017.7
20260902035732 26 167 4.8 6.4 0.00 0.00 0.00 78 1017.7
20260902035231 26 142 6.4 8.0 0.00 0.00 0.00 78 1017.7
20260902034732 26 144 6.4 8.0 0.00 0.00 0.00 78 1017.7
20260902034231 26 133 4.8 6.4 0.00 0.00 0.00 78 1017.7
20260902033731 26 77 4.8 8.0 0.00 0.00 0.00 78 1017.7
20260902033232 26 70 4.8 6.4 0.00 0.00 0.00 78 1017.6
20260902032731 26 94 6.4 8.0 0.00 0.00 0.00 78 1017.6
20260902032231 26 136 3.2 6.4 0.00 0.00 0.00 77 1017.5
20260902031732 26 169 4.8 8.0 0.00 0.00 0.00 77 1017.5
20260902031231 26 135 3.2 6.4 0.00 0.00 0.00 77 1017.5
20260902030731 26 157 1.6 3.2 0.00 0.00 0.00 77 1017.5
20260902030231 26 141 3.2 6.4 0.00 0.00 0.00 77 1017.5
20260902025732 26 102 6.4 11.3 0.00 0.00 0.00 77 1017.6
20260902025235 26 102 6.4 9.7 0.00 0.00 0.00 76 1017.6
20260902024731 26 103 6.4 11.3 0.00 0.00 0.00 75 1017.6
20260902024231 26 102 6.4 9.7 0.00 0.00 0.00 75 1017.6
20260902023732 26 99 8.0 11.3 0.00 0.00 0.00 74 1017.6
20260902023231 26 100 6.4 9.7 0.00 0.00 0.00 74 1017.6
20260902022731 27 101 8.0 9.7 0.00 0.00 0.00 73 1017.6
20260902022233 27 102 6.4 9.7 0.00 0.00 0.00 73 1017.6
20260902021731 27 93 8.0 11.3 0.00 0.00 0.00 72 1017.6
20260902021231 27 70 6.4 9.7 0.00 0.00 0.00 71 1017.5
20260902020732 27 89 6.4 8.0 0.00 0.00 0.00 70 1017.5
20260902020232 27 119 3.2 6.4 0.00 0.00 0.00 70 1017.5
20260902015731 28 83 4.8 6.4 0.00 0.00 0.00 69 1017.5
20260902015231 28 79 4.8 6.4 0.00 0.00 0.00 68 1017.3
20260902014732 28 89 6.4 8.0 0.00 0.00 0.00 68 1017.3
20260902014231 28 91 4.8 11.3 0.00 0.00 0.00 68 1017.3
20260902013738 28 87 4.8 9.7 0.00 0.00 0.00 69 1017.3
20260902013231 27 92 6.4 9.7 0.00 0.00 0.00 69 1017.2
20260902012731 27 98 6.4 9.7 0.00 0.00 0.00 70 1017.2
20260902012232 27 97 6.4 9.7 0.00 0.00 0.00 71 1017.1
20260902011732 27 102 8.0 9.7 0.00 0.00 0.00 70 1017.1
20260902011231 27 96 6.4 9.7 0.00 0.00 0.00 71 1017.0
20260902010731 27 92 6.4 11.3 0.00 0.00 0.00 72 1017.0
20260902010231 27 109 6.4 9.7 0.00 0.00 0.00 72 1017.0
20260902005731 27 113 6.4 9.7 0.00 0.00 0.00 72 1017.0
20260902005232 27 111 6.4 9.7 0.00 0.00 0.00 71 1017.0
20260902004730 28 111 6.4 9.7 0.00 0.00 0.00 70 1017.0
20260902004231 28 113 6.4 11.3 0.00 0.00 0.00 69 1016.9
20260902003731 28 112 6.4 9.7 0.00 0.00 0.00 67 1016.9
20260902003231 28 107 6.4 9.7 0.00 0.00 0.00 66 1017.0
20260902002731 29 118 6.4 11.3 0.00 0.00 0.00 65 1017.0
20260902002231 29 114 6.4 9.7 0.00 0.00 0.00 63 1017.0
20260902001731 30 105 6.4 8.0 0.00 0.00 0.00 63 1017.0
20260902001231 30 111 6.4 9.7 0.00 0.00 0.00 61 1017.0
20260902000731 30 96 6.4 9.7 0.00 0.00 0.00 60 1017.0
20260902000233 30 80 6.4 11.3 0.00 0.00 0.00 59 1017.1
20260901235733 31 73 8.0 9.7 0.00 0.00 0.00 59 1017.1
20260901235231 31 79 6.4 9.7 0.00 0.00 0.00 58 1017.1
20260901234731 31 59 4.8 8.0 0.00 0.00 0.00 58 1017.1
20260901234231 31 69 4.8 8.0 0.00 0.00 0.00 57 1017.1
20260901233732 31 41 3.2 6.4 0.00 0.00 0.00 56 1017.2
20260901233231 32 38 4.8 9.7 0.00 0.00 0.00 55 1017.2
20260901232732 32 306 3.2 4.8 0.00 0.00 0.00 55 1017.3
20260901232231 32 26 3.2 4.8 0.00 0.00 0.00 53 1017.3